Miscellaneous Local Product
Issued by NWS Hastings, NE

Home | Current Version | Previous Version | Text Only | Print | Product List | Glossary Off
Versions: 1 2 3 4 5 6 7 8 9 10 11 12 13 14 15 16 17 18 19 20 21 22 23 24 25 26 27 28 29 30 31 32 33 34 35 36 37 38 39 40 41 42 43 44 45 46 47 48 49 50

000
AXUS43 KGID 280802
MISGRI

GID CWA HOURLY WEATHER ROUNDUP
NATIONAL WEATHER SERVICE HASTINGS NE
300 AM CDT MON JUL 28 2014

NOTE: "FAIR" INDICATES FEW OR NO CLOUDS BELOW 12,000 FEET WITH NO
SIGNIFICANT WEATHER AND/OR OBSTRUCTIONS TO VISIBILITY.

...SOUTH CENTRAL NEBRASKA...

CITY           SKY/WX    TMP DP  RH WIND       PRES   REMARKS
GRAND ISLAND   CLEAR     60  56  86 CALM      30.28R
HASTINGS       CLEAR     61  56  83 NE6       30.27R
KEARNEY        CLEAR     61  55  82 N9        30.28S
ORD            CLEAR     56  53  90 W3        30.28R
YORK             N/A     57  57 100 N6        30.25F
AURORA         CLEAR     60  59  97 N5        30.26S
LEXINGTON      CLEAR     58  55  88 CALM      30.29S
HOLDREGE       CLEAR     59  56  91 CALM      30.28R
HEBRON         CLEAR     63  57  79 NE9       30.24R

...NEBRASKA PANHANDLE...

CITY           SKY/WX    TMP DP  RH WIND       PRES   REMARKS
CHADRON        CLEAR     59  51  75 NE3       30.33R
ALLIANCE       CLEAR     57  48  72 E5        30.34R
SCOTTSBLUFF    CLEAR     62  51  67 E10       30.33S
SIDNEY         CLEAR     63  48  58 SE8       30.35F

...WESTERN AND NORTH CENTRAL NEBRASKA...

CITY           SKY/WX    TMP DP  RH WIND       PRES   REMARKS
VALENTINE      CLEAR     54  49  83 CALM      30.32R
AINSWORTH      CLEAR     55  53  92 E6        30.32R
ONEILL         CLEAR     54  51  89 N6        30.29S
BROKEN BOW     PTCLDY    57  53  86 CALM      30.30S
IMPERIAL       PTCLDY    61  51  70 CALM      30.32R
NORTH PLATTE   CLEAR     55  51  86 CALM      30.31S
MCCOOK         CLEAR     61  53  75 NE5       30.29R

...EASTERN NEBRASKA...

CITY           SKY/WX    TMP DP  RH WIND       PRES   REMARKS
NORFOLK        CLEAR     56  53  90 W7        30.25S
SO SIOUX CITY  CLEAR     59  56  89 NW6       30.22S
ALBION         CLEAR     55  53  94 N3        30.27S
OMAHA EPPLEY   CLEAR     61  56  83 N8        30.20S
OFFUTT AFB     CLEAR     64  58  81 N8        30.19S
MILLARD        CLEAR     64  56  73 N6        30.20S
LINCOLN        CLEAR     63  56  78 N9        30.23S
NEBRASKA CITY  CLEAR     60  56  89 NW7       30.20R
BEATRICE       CLEAR     59  57  94 N5        30.22S
FALLS CITY     NOT AVBL

...NORTHERN KANSAS...

CITY           SKY/WX    TMP DP  RH WIND       PRES   REMARKS
GOODLAND       CLOUDY    64  52  64 S8        30.32S
HILL CITY      PTCLDY    61  55  81 CALM      30.25F
NORTON         SUNNY     57  50  77 CALM      30.26S
PHILLIPSBURG   CLEAR     64  54  68 NE6       30.25R
SMITH CENTER   CLEAR     63  57  82 NE5       30.25S
HAYS           PTCLDY    64  52  63 CALM      30.24S
RUSSELL        PTCLDY    66  54  65 CALM      30.22S
CONCORDIA      CLEAR     65  59  81 CALM      30.22S
SALINA         PTCLDY    71  57  61 NE6       30.20R
TOPEKA         CLEAR     65  58  78 NW3       30.16F



USA.gov is the U.S. government's official web portal to all federal, state and local government web resources and services.